Photometre #117[Polarized_P] IAOCA-KRSU AOT

File : 20221127_117.hum

27/11/2022,02:49:19,TEMP=-6.7,BA=5.64,STAT.A
27/11/2022,02:53:45,TEMP=-6.3,BA=5.68,STAT.A
27/11/2022,02:59:00,TEMP=-5.9,BA=5.68,STAT.A
27/11/2022,03:05:19,TEMP=-5.5,BA=5.64,STAT.A
27/11/2022,03:13:05,TEMP=-5.5,BA=5.64,STAT.A
27/11/2022,03:23:07,TEMP=-5.5,BA=5.64,STAT.A
27/11/2022,03:33:46,TEMP=-4.2,BA=5.64,STAT.F
27/11/2022,03:49:59,TEMP=-2.1,BA=5.64,STAT.D
27/11/2022,04:03:59,TEMP=-0.7,BA=5.64,STAT.D
27/11/2022,04:18:49,TEMP=1.2,BA=5.64,STAT.D
27/11/2022,04:33:47,TEMP=2.3,BA=5.64,STAT.F
27/11/2022,05:01:21,TEMP=3.3,BA=5.64,STAT.D
27/11/2022,05:04:01,TEMP=3.2,BA=5.64,STAT.D
27/11/2022,05:18:45,TEMP=3.1,BA=5.64,STAT.D
27/11/2022,05:33:46,TEMP=3.3,BA=5.64,STAT.F
27/11/2022,05:51:33,TEMP=3.8,BA=5.64,STAT.D
27/11/2022,06:03:46,TEMP=4.3,BA=5.64,STAT.D
27/11/2022,06:18:50,TEMP=5.3,BA=5.64,STAT.D
27/11/2022,06:33:45,TEMP=6.0,BA=5.64,STAT.F
27/11/2022,07:01:19,TEMP=6.3,BA=5.64,STAT.D
27/11/2022,07:03:47,TEMP=6.3,BA=5.64,STAT.D
27/11/2022,07:18:59,TEMP=6.8,BA=5.64,STAT.D
27/11/2022,07:33:46,TEMP=6.3,BA=5.64,STAT.F
27/11/2022,07:51:39,TEMP=5.5,BA=5.64,STAT.D
27/11/2022,08:04:00,TEMP=6.1,BA=5.64,STAT.D
27/11/2022,08:18:52,TEMP=6.5,BA=5.64,STAT.D
27/11/2022,08:33:46,TEMP=6.7,BA=5.64,STAT.F
27/11/2022,08:49:25,TEMP=6.5,BA=5.64,STAT.D
27/11/2022,09:03:45,TEMP=6.0,BA=5.64,STAT.D
27/11/2022,09:18:46,TEMP=5.9,BA=5.64,STAT.D
27/11/2022,09:33:46,TEMP=4.8,BA=5.64,STAT.F
27/11/2022,09:48:33,TEMP=3.4,BA=5.64,STAT.A
27/11/2022,09:54:23,TEMP=2.7,BA=5.64,STAT.A
27/11/2022,10:02:09,TEMP=1.5,BA=5.64,STAT.A
27/11/2022,10:08:28,TEMP=0.7,BA=5.64,STAT.A
27/11/2022,10:13:43,TEMP=0.2,BA=4.12,STAT.A
27/11/2022,10:18:09,TEMP=-0.1,BA=4.12,STAT.A